Погода в Гвардейске

Россия / Калининградская область     54°38′51″N   21°04′16″E
темп.,
°C
ветер,
м/с
пор.,
м/с
влажн.,
%
обл.,
%
осадки,
мм/ч
давл.,
гПа
погр.,
м
16 октября, сб
сб1623:00+9зюз6128433 0.3 1009619
02:00+8зсз39785 0.6 1010308
05:00+6зюз358190 0.0 101283
08:00+7юз5118678 0.0 1012417
11:00+12з6105717 0.2 10131560
14:00+11з6116164 0.4 10141459
17:00+10з71266100 0.1 1014953
20:00+9з61369100 0.3 1015711
17 октября, вс
вс1723:00+10з61268100 0.1 1015940
02:00+9зюз51081100 0.3 1015818
05:00+9зюз51174100 0.4 1015753
08:00+9зюз61182100 0.7 1014703
11:00+10зюз71176100 0.4 1015965
14:00+11зюз71073100 0.8 10151276
17:00+10зюз61170100 0.1 1014854
20:00+9зюз61274100 0.2 1014731
18 октября, пн
пн1823:00+9зюз51186100 0.4 1015396
02:00+8зюз3791100 0.4 1015164
05:00+6з399043 0.1 1015179
08:00+7сз128393 0.3 101719
11:00+11ссз35535 0.3 10181316
14:00+11ссз56445 0.3 10191569
17:00+8ссз48565 0.0 1020336
20:00+6сз37632 0.0 1022130
19 октября, вт
вт1923:00+5сз35695 0.0 102486
02:00+5зсз3473100 0.0 102549
05:00+5зсз3472100 0.0 102668
08:00+6з2371100 0.0 102659
11:00+10з22556 0.0 1027868
14:00+11юз2347100 0.0 10261247
17:00+8ю3460100 0.0 102466
20:00+8ююв4958100 0.0 1023293
20 октября, ср
ср2023:00+8ююв61251100 0.0 1021454
02:00+8ю61555100 0.0 1018439
05:00+8ю61572100 0.0 1014492
08:00+9ю71789100 0.8 1010605
11:00+11ююз71587100 1.6 1008675
14:00+15юз71577100 1.7 1005717
17:00+16ююз81772100 0.0 1003730
20:00+16юз81575100 0.0 1002830